Year,Month,Day,Hour,Minute,Value (Times are PST for temperature in C)
2015,06,29,00,00,17.30
2015,06,29,00,01,17.30
2015,06,29,00,02,17.30
2015,06,29,00,03,17.40
2015,06,29,00,04,17.40
2015,06,29,00,05,17.40
2015,06,29,00,06,17.50
2015,06,29,00,07,17.50
2015,06,29,00,08,17.50
2015,06,29,00,09,17.60
2015,06,29,00,10,17.60
2015,06,29,00,11,17.60
2015,06,29,00,12,17.60
2015,06,29,00,13,17.70
2015,06,29,00,14,17.70
2015,06,29,00,15,17.70
2015,06,29,00,16,17.70
2015,06,29,00,17,17.80
2015,06,29,00,18,17.80
2015,06,29,00,19,17.90
2015,06,29,00,20,17.90
2015,06,29,00,21,17.90
2015,06,29,00,22,17.90
2015,06,29,00,23,17.90
2015,06,29,00,24,17.90
2015,06,29,00,25,17.90
2015,06,29,00,26,17.90
2015,06,29,00,27,17.90
2015,06,29,00,28,17.90
2015,06,29,00,29,17.90
2015,06,29,00,30,17.90
2015,06,29,00,31,18.00
2015,06,29,00,32,18.10
2015,06,29,00,33,18.10
2015,06,29,00,34,18.10
2015,06,29,00,35,18.10
2015,06,29,00,36,18.10
2015,06,29,00,37,18.20
2015,06,29,00,38,18.30
2015,06,29,00,39,18.40
2015,06,29,00,40,18.50
2015,06,29,00,41,18.60
2015,06,29,00,42,18.60
2015,06,29,00,43,18.60
2015,06,29,00,44,18.60
2015,06,29,00,45,18.70
2015,06,29,00,46,18.70
2015,06,29,00,47,18.70
2015,06,29,00,48,18.70
2015,06,29,00,49,18.70
2015,06,29,00,50,18.80
2015,06,29,00,51,18.80
2015,06,29,00,52,18.80
2015,06,29,00,53,18.90
2015,06,29,00,54,18.90
2015,06,29,00,55,19.00
2015,06,29,00,56,19.10
2015,06,29,00,57,19.10
2015,06,29,00,58,19.20
2015,06,29,00,59,19.30
2015,06,29,01,00,19.40
2015,06,29,01,01,19.40
2015,06,29,01,02,19.40
2015,06,29,01,03,19.40
2015,06,29,01,04,19.40
2015,06,29,01,05,19.40
2015,06,29,01,06,19.30
2015,06,29,01,07,19.30
2015,06,29,01,08,19.20
2015,06,29,01,09,19.20
2015,06,29,01,10,19.10
2015,06,29,01,11,19.10
2015,06,29,01,12,19.10
2015,06,29,01,13,19.10
2015,06,29,01,14,19.10
2015,06,29,01,15,19.10
2015,06,29,01,16,19.00
2015,06,29,01,17,18.90
2015,06,29,01,18,18.90
2015,06,29,01,19,18.90
2015,06,29,01,20,18.90
2015,06,29,01,21,18.90
2015,06,29,01,22,18.90
2015,06,29,01,23,18.90
2015,06,29,01,24,18.90
2015,06,29,01,25,18.90
2015,06,29,01,26,18.90
2015,06,29,01,27,18.90
2015,06,29,01,28,18.90
2015,06,29,01,29,18.90
2015,06,29,01,30,18.80
2015,06,29,01,31,18.90
2015,06,29,01,32,18.90
2015,06,29,01,33,18.90
2015,06,29,01,34,18.90
2015,06,29,01,35,18.90
2015,06,29,01,36,18.90
2015,06,29,01,37,18.90
2015,06,29,01,38,18.90
2015,06,29,01,39,18.90
2015,06,29,01,40,18.90
2015,06,29,01,41,18.90
2015,06,29,01,42,18.90
2015,06,29,01,43,18.90
2015,06,29,01,44,18.90
2015,06,29,01,45,18.90
2015,06,29,01,46,18.90
2015,06,29,01,47,18.90
2015,06,29,01,48,18.90
2015,06,29,01,49,18.90
2015,06,29,01,50,18.90
2015,06,29,01,51,18.90
2015,06,29,01,52,18.90
2015,06,29,01,53,18.90
2015,06,29,01,54,18.90
2015,06,29,01,55,18.90
2015,06,29,01,56,18.80
2015,06,29,01,57,18.80
2015,06,29,01,58,18.80
2015,06,29,01,59,18.90
2015,06,29,02,00,18.90
2015,06,29,02,01,18.90
2015,06,29,02,02,19.00
2015,06,29,02,03,19.10
2015,06,29,02,04,19.10
2015,06,29,02,05,19.20
2015,06,29,02,06,19.20
2015,06,29,02,07,19.20
2015,06,29,02,08,19.20
2015,06,29,02,09,19.20
2015,06,29,02,10,19.30
2015,06,29,02,11,19.30
2015,06,29,02,12,19.30
2015,06,29,02,13,19.30
2015,06,29,02,14,19.20
2015,06,29,02,15,19.10
2015,06,29,02,16,19.10
2015,06,29,02,17,19.10
2015,06,29,02,18,19.00
2015,06,29,02,19,18.90
2015,06,29,02,20,18.90
2015,06,29,02,21,18.90
2015,06,29,02,22,18.90
2015,06,29,02,23,19.00
2015,06,29,02,24,19.10
2015,06,29,02,25,19.10
2015,06,29,02,26,19.10
2015,06,29,02,27,19.10
2015,06,29,02,28,19.10
2015,06,29,02,29,19.10
2015,06,29,02,30,19.10
2015,06,29,02,31,19.10
2015,06,29,02,32,19.10
2015,06,29,02,33,19.10
2015,06,29,02,34,19.10
2015,06,29,02,35,19.00
2015,06,29,02,36,18.90
2015,06,29,02,37,18.90
2015,06,29,02,38,18.80
2015,06,29,02,39,18.80
2015,06,29,02,40,18.70
2015,06,29,02,41,18.70
2015,06,29,02,42,18.60
2015,06,29,02,43,18.60
2015,06,29,02,44,18.60
2015,06,29,02,45,18.70
2015,06,29,02,46,18.70
2015,06,29,02,47,18.80
2015,06,29,02,48,18.80
2015,06,29,02,49,18.80
2015,06,29,02,50,18.80
2015,06,29,02,51,18.80
2015,06,29,02,52,18.80
2015,06,29,02,53,18.80
2015,06,29,02,54,18.80
2015,06,29,02,55,18.80
2015,06,29,02,56,18.80
2015,06,29,02,57,18.90
2015,06,29,02,58,18.90
2015,06,29,02,59,18.90
2015,06,29,03,00,19.00
2015,06,29,03,01,19.10
2015,06,29,03,02,19.30
2015,06,29,03,03,19.50
2015,06,29,03,04,19.80
2015,06,29,03,05,20.10
2015,06,29,03,06,20.30
2015,06,29,03,07,20.60
2015,06,29,03,08,20.90
2015,06,29,03,09,21.00
2015,06,29,03,10,21.20
2015,06,29,03,11,21.30
2015,06,29,03,12,21.40
2015,06,29,03,13,21.50
2015,06,29,03,14,21.60
2015,06,29,03,15,21.60
2015,06,29,03,16,21.60
2015,06,29,03,17,21.60
2015,06,29,03,18,21.60
2015,06,29,03,19,21.50
2015,06,29,03,20,21.40
2015,06,29,03,21,21.30
2015,06,29,03,22,21.20
2015,06,29,03,23,21.10
2015,06,29,03,24,21.00
2015,06,29,03,25,21.00
2015,06,29,03,26,20.80
2015,06,29,03,27,20.80
2015,06,29,03,28,20.60
2015,06,29,03,29,20.50
2015,06,29,03,30,20.50
2015,06,29,03,31,20.40
2015,06,29,03,32,20.30
2015,06,29,03,33,20.20
2015,06,29,03,34,20.10
2015,06,29,03,35,20.00
2015,06,29,03,36,19.90
2015,06,29,03,37,19.80
2015,06,29,03,38,19.80
2015,06,29,03,39,19.70
2015,06,29,03,40,19.60
2015,06,29,03,41,19.60
2015,06,29,03,42,19.50
2015,06,29,03,43,19.50
2015,06,29,03,44,19.40
2015,06,29,03,45,19.40
2015,06,29,03,46,19.30
2015,06,29,03,47,19.30
2015,06,29,03,48,19.30
2015,06,29,03,49,19.30
2015,06,29,03,50,19.20
2015,06,29,03,51,19.20
2015,06,29,03,52,19.20
2015,06,29,03,53,19.20
2015,06,29,03,54,19.10
2015,06,29,03,55,19.10
2015,06,29,03,56,19.10
2015,06,29,03,57,19.10
2015,06,29,03,58,19.10
2015,06,29,03,59,19.10
2015,06,29,04,00,19.10
2015,06,29,04,01,19.10
2015,06,29,04,02,19.10
2015,06,29,04,03,19.10
2015,06,29,04,04,19.10
2015,06,29,04,05,19.00
2015,06,29,04,06,18.90
2015,06,29,04,07,18.90
2015,06,29,04,08,18.90
2015,06,29,04,09,18.90
2015,06,29,04,10,18.90
2015,06,29,04,11,18.90
2015,06,29,04,12,18.90
2015,06,29,04,13,18.90
2015,06,29,04,14,18.90
2015,06,29,04,15,18.90
2015,06,29,04,16,18.80
2015,06,29,04,17,18.80
2015,06,29,04,18,18.80
2015,06,29,04,19,18.80
2015,06,29,04,20,18.80
2015,06,29,04,21,18.70
2015,06,29,04,22,18.70
2015,06,29,04,23,18.70
2015,06,29,04,24,18.60
2015,06,29,04,25,18.60
2015,06,29,04,26,18.60
2015,06,29,04,27,18.60
2015,06,29,04,28,18.60
2015,06,29,04,29,18.60
2015,06,29,04,30,18.60
2015,06,29,04,31,18.60
2015,06,29,04,32,18.60
2015,06,29,04,33,18.60
2015,06,29,04,34,18.60
2015,06,29,04,35,18.60
2015,06,29,04,36,18.60
2015,06,29,04,37,18.60
2015,06,29,04,38,18.70
2015,06,29,04,39,18.70
2015,06,29,04,40,18.70
2015,06,29,04,41,18.70
2015,06,29,04,42,18.70
2015,06,29,04,43,18.80
2015,06,29,04,44,18.80
2015,06,29,04,45,18.80
2015,06,29,04,46,18.90
2015,06,29,04,47,18.90
2015,06,29,04,48,18.90
2015,06,29,04,49,18.90
2015,06,29,04,50,18.90
2015,06,29,04,51,18.90
2015,06,29,04,52,18.90
2015,06,29,04,53,18.80
2015,06,29,04,54,18.80
2015,06,29,04,55,18.80
2015,06,29,04,56,18.70
2015,06,29,04,57,18.70
2015,06,29,04,58,18.70
2015,06,29,04,59,18.70
2015,06,29,05,00,18.70
2015,06,29,05,01,18.70
2015,06,29,05,02,18.70
2015,06,29,05,03,18.70
2015,06,29,05,04,18.70
2015,06,29,05,05,18.70
2015,06,29,05,06,18.70
2015,06,29,05,07,18.70
2015,06,29,05,08,18.70
2015,06,29,05,09,18.70
2015,06,29,05,10,18.70
2015,06,29,05,11,18.70
2015,06,29,05,12,18.70
2015,06,29,05,13,18.70
2015,06,29,05,14,18.70
2015,06,29,05,15,18.70
2015,06,29,05,16,18.70
2015,06,29,05,17,18.70
2015,06,29,05,18,18.70
2015,06,29,05,19,18.70
2015,06,29,05,20,18.70
2015,06,29,05,21,18.60
2015,06,29,05,22,18.60
2015,06,29,05,23,18.60
2015,06,29,05,24,18.60
2015,06,29,05,25,18.60
2015,06,29,05,26,18.60
2015,06,29,05,27,18.60
2015,06,29,05,28,18.60
2015,06,29,05,29,18.50
2015,06,29,05,30,18.50
2015,06,29,05,31,18.50
2015,06,29,05,32,18.50
2015,06,29,05,33,18.50
2015,06,29,05,34,18.50
2015,06,29,05,35,18.50
2015,06,29,05,36,18.50
2015,06,29,05,37,18.50
2015,06,29,05,38,18.50
2015,06,29,05,39,18.50
2015,06,29,05,40,18.50
2015,06,29,05,41,18.50
2015,06,29,05,42,18.50
2015,06,29,05,43,18.50
2015,06,29,05,44,18.50
2015,06,29,05,45,18.50
2015,06,29,05,46,18.50
2015,06,29,05,47,18.50
2015,06,29,05,48,18.50
2015,06,29,05,49,18.50
2015,06,29,05,50,18.60
2015,06,29,05,51,18.60
2015,06,29,05,52,18.60
2015,06,29,05,53,18.60
2015,06,29,05,54,18.60
2015,06,29,05,55,18.60
2015,06,29,05,56,18.60
2015,06,29,05,57,18.60
2015,06,29,05,58,18.60
2015,06,29,05,59,18.60
2015,06,29,06,00,18.60
2015,06,29,06,01,18.60
2015,06,29,06,02,18.60
2015,06,29,06,03,18.60
2015,06,29,06,04,18.60
2015,06,29,06,05,18.60
2015,06,29,06,06,18.60
2015,06,29,06,07,18.60
2015,06,29,06,08,18.60
2015,06,29,06,09,18.60
2015,06,29,06,10,18.60
2015,06,29,06,11,18.60
2015,06,29,06,12,18.60
2015,06,29,06,13,18.60
2015,06,29,06,14,18.60
2015,06,29,06,15,18.60
2015,06,29,06,16,18.70
2015,06,29,06,17,18.70
2015,06,29,06,18,18.70
2015,06,29,06,19,18.80
2015,06,29,06,20,18.80
2015,06,29,06,21,18.90
2015,06,29,06,22,18.90
2015,06,29,06,23,18.90
2015,06,29,06,24,18.90
2015,06,29,06,25,18.90
2015,06,29,06,26,18.90
2015,06,29,06,27,18.90
2015,06,29,06,28,18.90
2015,06,29,06,29,18.90
2015,06,29,06,30,18.90
2015,06,29,06,31,18.90
2015,06,29,06,32,18.90
2015,06,29,06,33,18.90
2015,06,29,06,34,18.90
2015,06,29,06,35,18.90
2015,06,29,06,36,18.90
2015,06,29,06,37,18.90
2015,06,29,06,38,18.90
2015,06,29,06,39,18.90
2015,06,29,06,40,18.90
2015,06,29,06,41,18.90
2015,06,29,06,42,18.90
2015,06,29,06,43,18.90
2015,06,29,06,44,19.00
2015,06,29,06,45,19.10
2015,06,29,06,46,19.10
2015,06,29,06,47,19.10
2015,06,29,06,48,19.10
2015,06,29,06,49,19.10
2015,06,29,06,50,19.10
2015,06,29,06,51,19.10
2015,06,29,06,52,19.10
2015,06,29,06,53,19.10
2015,06,29,06,54,19.10
2015,06,29,06,55,19.10
2015,06,29,06,56,19.10
2015,06,29,06,57,19.10
2015,06,29,06,58,19.10
2015,06,29,06,59,19.10
2015,06,29,07,00,19.10
2015,06,29,07,01,19.10
2015,06,29,07,02,19.10
2015,06,29,07,03,19.10
2015,06,29,07,04,19.10
2015,06,29,07,05,19.10
2015,06,29,07,06,19.10
2015,06,29,07,07,19.10
2015,06,29,07,08,19.10
2015,06,29,07,09,19.10
2015,06,29,07,10,19.00
2015,06,29,07,11,19.00
2015,06,29,07,12,19.00
2015,06,29,07,13,19.10
2015,06,29,07,14,19.10
2015,06,29,07,15,19.10
2015,06,29,07,16,19.10
2015,06,29,07,17,19.10
2015,06,29,07,18,19.10
2015,06,29,07,19,19.10
2015,06,29,07,20,19.10
2015,06,29,07,21,19.10
2015,06,29,07,22,19.10
2015,06,29,07,23,19.20
2015,06,29,07,24,19.20
2015,06,29,07,25,19.20
2015,06,29,07,26,19.20
2015,06,29,07,27,19.20
2015,06,29,07,28,19.20
2015,06,29,07,29,19.30
2015,06,29,07,30,19.30
2015,06,29,07,31,19.30
2015,06,29,07,32,19.30
2015,06,29,07,33,19.30
2015,06,29,07,34,19.30
2015,06,29,07,35,19.30
2015,06,29,07,36,19.30
2015,06,29,07,37,19.30
2015,06,29,07,38,19.30
2015,06,29,07,39,19.30
2015,06,29,07,40,19.30
2015,06,29,07,41,19.30
2015,06,29,07,42,19.30
2015,06,29,07,43,19.30
2015,06,29,07,44,19.30
2015,06,29,07,45,19.30
2015,06,29,07,46,19.30
2015,06,29,07,47,19.30
2015,06,29,07,48,19.40
2015,06,29,07,49,19.40
2015,06,29,07,50,19.40
2015,06,29,07,51,19.40
2015,06,29,07,52,19.40
2015,06,29,07,53,19.50
2015,06,29,07,54,19.50
2015,06,29,07,55,19.50
2015,06,29,07,56,19.60
2015,06,29,07,57,19.60
2015,06,29,07,58,19.60
2015,06,29,07,59,19.70
2015,06,29,08,00,19.70
2015,06,29,08,01,19.80
2015,06,29,08,02,19.90
2015,06,29,08,03,19.90
2015,06,29,08,04,20.00
2015,06,29,08,05,20.10
2015,06,29,08,06,20.20
2015,06,29,08,07,20.20
2015,06,29,08,08,20.30
2015,06,29,08,09,20.40
2015,06,29,08,10,20.50
2015,06,29,08,11,20.70
2015,06,29,08,12,20.80
2015,06,29,08,13,20.90
2015,06,29,08,14,21.00
2015,06,29,08,15,21.10
2015,06,29,08,16,21.10
2015,06,29,08,17,21.20
2015,06,29,08,18,21.30
2015,06,29,08,19,21.30
2015,06,29,08,20,21.30
2015,06,29,08,21,21.40
2015,06,29,08,22,21.50
2015,06,29,08,23,21.60
2015,06,29,08,24,21.70
2015,06,29,08,25,21.80
2015,06,29,08,26,22.00
2015,06,29,08,27,22.00
2015,06,29,08,28,22.00
2015,06,29,08,29,22.10
2015,06,29,08,30,22.00
2015,06,29,08,31,22.00
2015,06,29,08,32,22.00
2015,06,29,08,33,21.90
2015,06,29,08,34,21.80
2015,06,29,08,35,21.80
2015,06,29,08,36,21.70
2015,06,29,08,37,21.60
2015,06,29,08,38,21.60
2015,06,29,08,39,21.40
2015,06,29,08,40,21.30
2015,06,29,08,41,21.20
2015,06,29,08,42,21.10
2015,06,29,08,43,21.00
2015,06,29,08,44,21.00
2015,06,29,08,45,20.80
2015,06,29,08,46,20.70
2015,06,29,08,47,20.50
2015,06,29,08,48,20.30
2015,06,29,08,49,20.20
2015,06,29,08,50,20.00
2015,06,29,08,51,19.90
2015,06,29,08,52,19.90
2015,06,29,08,53,19.70
2015,06,29,08,54,19.60
2015,06,29,08,55,19.40
2015,06,29,08,56,19.30
2015,06,29,08,57,19.10
2015,06,29,08,58,19.00
2015,06,29,08,59,18.80
2015,06,29,09,00,18.60
2015,06,29,09,01,18.60
2015,06,29,09,02,18.50
2015,06,29,09,03,18.40
2015,06,29,09,04,18.40
2015,06,29,09,05,18.40
2015,06,29,09,06,18.50
2015,06,29,09,07,18.50
2015,06,29,09,08,18.60
2015,06,29,09,09,18.70
2015,06,29,09,10,18.90
2015,06,29,09,11,19.00
2015,06,29,09,12,19.20
2015,06,29,09,13,19.30
2015,06,29,09,14,19.40
2015,06,29,09,15,19.60
2015,06,29,09,16,19.70
2015,06,29,09,17,19.90
2015,06,29,09,18,19.90
2015,06,29,09,19,19.90
2015,06,29,09,20,19.90
2015,06,29,09,21,20.00
2015,06,29,09,22,20.00
2015,06,29,09,23,19.90
2015,06,29,09,24,19.90
2015,06,29,09,25,19.80
2015,06,29,09,26,19.70
2015,06,29,09,27,19.60
2015,06,29,09,28,19.40
2015,06,29,09,29,19.40
2015,06,29,09,30,19.30
2015,06,29,09,31,19.20
2015,06,29,09,32,19.20
2015,06,29,09,33,19.10
2015,06,29,09,34,19.10
2015,06,29,09,35,19.10
2015,06,29,09,36,19.20
2015,06,29,09,37,19.30
2015,06,29,09,38,19.40
2015,06,29,09,39,19.40
2015,06,29,09,40,19.50
2015,06,29,09,41,19.60
2015,06,29,09,42,19.80
2015,06,29,09,43,19.90
2015,06,29,09,44,20.00
2015,06,29,09,45,20.10
2015,06,29,09,46,20.20
2015,06,29,09,47,20.40
2015,06,29,09,48,20.50
2015,06,29,09,49,20.70
2015,06,29,09,50,20.80
2015,06,29,09,51,20.90
2015,06,29,09,52,21.00
2015,06,29,09,53,21.10
2015,06,29,09,54,21.20
2015,06,29,09,55,21.30
2015,06,29,09,56,21.30
2015,06,29,09,57,21.40
2015,06,29,09,58,21.40
2015,06,29,09,59,21.50
2015,06,29,10,00,21.60
2015,06,29,10,01,21.60
2015,06,29,10,02,21.70
2015,06,29,10,03,21.70
2015,06,29,10,04,21.60
2015,06,29,10,05,21.60
2015,06,29,10,06,21.40
2015,06,29,10,07,21.30
2015,06,29,10,08,21.30
2015,06,29,10,09,21.20
2015,06,29,10,10,21.10
2015,06,29,10,11,21.10
2015,06,29,10,12,21.10
2015,06,29,10,13,21.10
2015,06,29,10,14,21.00
2015,06,29,10,15,21.00
2015,06,29,10,16,21.00
2015,06,29,10,17,21.00
2015,06,29,10,18,21.00
2015,06,29,10,19,21.10
2015,06,29,10,20,21.20
2015,06,29,10,21,21.30
2015,06,29,10,22,21.40
2015,06,29,10,23,21.60
2015,06,29,10,24,21.60
2015,06,29,10,25,21.70
2015,06,29,10,26,21.80
2015,06,29,10,27,22.00
2015,06,29,10,28,22.10
2015,06,29,10,29,22.30
2015,06,29,10,30,22.40
2015,06,29,10,31,22.50
2015,06,29,10,32,22.60
2015,06,29,10,33,22.70
2015,06,29,10,34,22.80
2015,06,29,10,35,22.80
2015,06,29,10,36,22.90
2015,06,29,10,37,22.90
2015,06,29,10,38,23.00
2015,06,29,10,39,23.20
2015,06,29,10,40,23.30
2015,06,29,10,41,23.30
2015,06,29,10,42,23.40
2015,06,29,10,43,23.40
2015,06,29,10,44,23.40
2015,06,29,10,45,23.40
2015,06,29,10,46,23.50
2015,06,29,10,47,23.60
2015,06,29,10,48,23.60
2015,06,29,10,49,23.60
2015,06,29,10,50,23.60
2015,06,29,10,51,23.60
2015,06,29,10,52,23.70
2015,06,29,10,53,23.70
2015,06,29,10,54,23.70
2015,06,29,10,55,23.80
2015,06,29,10,56,23.90
2015,06,29,10,57,24.00
2015,06,29,10,58,24.10
2015,06,29,10,59,24.10
2015,06,29,11,00,24.10
2015,06,29,11,01,24.10
2015,06,29,11,02,24.10
2015,06,29,11,03,24.10
2015,06,29,11,04,23.90
2015,06,29,11,05,23.70
2015,06,29,11,06,23.70
2015,06,29,11,07,23.50
2015,06,29,11,08,23.30
2015,06,29,11,09,23.20
2015,06,29,11,10,23.20
2015,06,29,11,11,23.10
2015,06,29,11,12,22.80
2015,06,29,11,13,22.50
2015,06,29,11,14,22.20
2015,06,29,11,15,21.80
2015,06,29,11,16,21.50
2015,06,29,11,17,21.30
2015,06,29,11,18,21.30
2015,06,29,11,19,21.30
2015,06,29,11,20,21.50
2015,06,29,11,21,21.60
2015,06,29,11,22,21.40
2015,06,29,11,23,21.30
2015,06,29,11,24,21.20
2015,06,29,11,25,21.10
2015,06,29,11,26,21.10
2015,06,29,11,27,21.10
2015,06,29,11,28,21.10
2015,06,29,11,29,21.00
2015,06,29,11,30,21.00
2015,06,29,11,31,21.10
2015,06,29,11,32,21.10
2015,06,29,11,33,21.10
2015,06,29,11,34,20.90
2015,06,29,11,35,20.70
2015,06,29,11,36,20.70
2015,06,29,11,37,20.60
2015,06,29,11,38,20.60
2015,06,29,11,39,20.60
2015,06,29,11,40,20.60
2015,06,29,11,41,20.60
2015,06,29,11,42,20.60
2015,06,29,11,43,20.60
2015,06,29,11,44,20.70
2015,06,29,11,45,20.70
2015,06,29,11,46,20.80
2015,06,29,11,47,20.80
2015,06,29,11,48,20.80
2015,06,29,11,49,20.80
2015,06,29,11,50,20.80
2015,06,29,11,51,20.80
2015,06,29,11,52,20.80
2015,06,29,11,53,20.80
2015,06,29,11,54,20.90
2015,06,29,11,55,21.00
2015,06,29,11,56,21.10
2015,06,29,11,57,21.00
2015,06,29,11,58,21.00
2015,06,29,11,59,20.90
2015,06,29,12,00,20.80
2015,06,29,12,01,20.80
2015,06,29,12,02,20.70
2015,06,29,12,03,20.60
2015,06,29,12,04,20.60
2015,06,29,12,05,20.50
2015,06,29,12,06,20.40
2015,06,29,12,07,20.40
2015,06,29,12,08,20.40
2015,06,29,12,09,20.30
2015,06,29,12,10,20.20
2015,06,29,12,11,20.20
2015,06,29,12,12,20.40
2015,06,29,12,13,20.40
2015,06,29,12,14,20.50
2015,06,29,12,15,20.50
2015,06,29,12,16,20.50
2015,06,29,12,17,20.60
2015,06,29,12,18,20.60
2015,06,29,12,19,20.50
2015,06,29,12,20,20.40
2015,06,29,12,21,20.10
2015,06,29,12,22,19.80
2015,06,29,12,23,19.60
2015,06,29,12,24,19.40
2015,06,29,12,25,19.30
2015,06,29,12,26,19.10
2015,06,29,12,27,19.00
2015,06,29,12,28,18.90
2015,06,29,12,29,18.90
2015,06,29,12,30,18.90
2015,06,29,12,31,19.00
2015,06,29,12,32,19.10
2015,06,29,12,33,19.10
2015,06,29,12,34,19.00
2015,06,29,12,35,19.00
2015,06,29,12,36,19.20
2015,06,29,12,37,19.40
2015,06,29,12,38,19.50
2015,06,29,12,39,19.60
2015,06,29,12,40,19.70
2015,06,29,12,41,19.90
2015,06,29,12,42,20.10
2015,06,29,12,43,20.10
2015,06,29,12,44,20.20
2015,06,29,12,45,20.20
2015,06,29,12,46,20.20
2015,06,29,12,47,20.40
2015,06,29,12,48,20.50
2015,06,29,12,49,20.60
2015,06,29,12,50,20.80
2015,06,29,12,51,20.90
2015,06,29,12,52,21.00
2015,06,29,12,53,21.10
2015,06,29,12,54,21.10
2015,06,29,12,55,21.30
2015,06,29,12,56,21.30
2015,06,29,12,57,21.40
2015,06,29,12,58,21.30
2015,06,29,12,59,21.10
2015,06,29,13,00,21.10
2015,06,29,13,01,21.10
2015,06,29,13,02,21.20
2015,06,29,13,03,21.40
2015,06,29,13,04,21.80
2015,06,29,13,05,22.10
2015,06,29,13,06,22.60
2015,06,29,13,07,23.00
2015,06,29,13,08,23.30
2015,06,29,13,09,23.60
2015,06,29,13,10,23.80
2015,06,29,13,11,23.90
2015,06,29,13,12,24.10
2015,06,29,13,13,24.20
2015,06,29,13,14,24.40
2015,06,29,13,15,24.50
2015,06,29,13,16,24.50
2015,06,29,13,17,24.40
2015,06,29,13,18,24.10
2015,06,29,13,19,24.00
2015,06,29,13,20,23.80
2015,06,29,13,21,23.70
2015,06,29,13,22,23.70
2015,06,29,13,23,23.70
2015,06,29,13,24,23.80
2015,06,29,13,25,23.80
2015,06,29,13,26,23.90
2015,06,29,13,27,24.10
2015,06,29,13,28,24.20
2015,06,29,13,29,24.40
2015,06,29,13,30,24.50
2015,06,29,13,31,24.80
2015,06,29,13,32,25.10
2015,06,29,13,33,25.50
2015,06,29,13,34,25.80
2015,06,29,13,35,26.10
2015,06,29,13,36,26.50
2015,06,29,13,37,26.80
2015,06,29,13,38,27.10
2015,06,29,13,39,27.30
2015,06,29,13,40,27.40
2015,06,29,13,41,27.50
2015,06,29,13,42,27.70
2015,06,29,13,43,27.80
2015,06,29,13,44,28.00
2015,06,29,13,45,28.00
2015,06,29,13,46,28.10
2015,06,29,13,47,28.20
2015,06,29,13,48,28.20
2015,06,29,13,49,28.10
2015,06,29,13,50,28.00
2015,06,29,13,51,28.10
2015,06,29,13,52,28.20
2015,06,29,13,53,28.30
2015,06,29,13,54,28.30
2015,06,29,13,55,28.30
2015,06,29,13,56,28.30
2015,06,29,13,57,28.30
2015,06,29,13,58,28.30
2015,06,29,13,59,28.20
2015,06,29,14,00,28.20
2015,06,29,14,01,28.20
2015,06,29,14,02,28.20
2015,06,29,14,03,28.20
2015,06,29,14,04,28.30
2015,06,29,14,05,28.30
2015,06,29,14,06,28.30
2015,06,29,14,07,28.20
2015,06,29,14,08,28.20
2015,06,29,14,09,28.20
2015,06,29,14,10,28.20
2015,06,29,14,11,28.30
2015,06,29,14,12,28.40
2015,06,29,14,13,28.60
2015,06,29,14,14,28.60
2015,06,29,14,15,28.80
2015,06,29,14,16,28.90
2015,06,29,14,17,28.90
2015,06,29,14,18,29.00
2015,06,29,14,19,29.10
2015,06,29,14,20,29.30
2015,06,29,14,21,29.40
2015,06,29,14,22,29.50
2015,06,29,14,23,29.50
2015,06,29,14,24,29.40
2015,06,29,14,25,29.30
2015,06,29,14,26,29.20
2015,06,29,14,27,29.10
2015,06,29,14,28,29.00
2015,06,29,14,29,28.90
2015,06,29,14,30,29.00
2015,06,29,14,31,29.10
2015,06,29,14,32,29.10
2015,06,29,14,33,29.30
2015,06,29,14,34,29.40
2015,06,29,14,35,29.50
2015,06,29,14,36,29.60
2015,06,29,14,37,29.60
2015,06,29,14,38,29.60
2015,06,29,14,39,29.50
2015,06,29,14,40,29.50
2015,06,29,14,41,29.40
2015,06,29,14,42,29.30
2015,06,29,14,43,29.20
2015,06,29,14,44,29.20
2015,06,29,14,45,29.20
2015,06,29,14,46,29.20
2015,06,29,14,47,29.20
2015,06,29,14,48,29.20
2015,06,29,14,49,29.20
2015,06,29,14,50,29.20
2015,06,29,14,51,29.20
2015,06,29,14,52,29.20
2015,06,29,14,53,29.20
2015,06,29,14,54,29.20
2015,06,29,14,55,29.30
2015,06,29,14,56,29.30
2015,06,29,14,57,29.30
2015,06,29,14,58,29.30
2015,06,29,14,59,29.20
2015,06,29,15,00,29.10
2015,06,29,15,01,29.00
2015,06,29,15,02,29.00
2015,06,29,15,03,29.10
2015,06,29,15,04,29.20
2015,06,29,15,05,29.20
2015,06,29,15,06,29.20
2015,06,29,15,07,29.10
2015,06,29,15,08,29.00
2015,06,29,15,09,28.90
2015,06,29,15,10,28.90
2015,06,29,15,11,28.80
2015,06,29,15,12,28.80
2015,06,29,15,13,28.70
2015,06,29,15,14,28.70
2015,06,29,15,15,28.70
2015,06,29,15,16,28.70
2015,06,29,15,17,28.70
2015,06,29,15,18,28.70
2015,06,29,15,19,28.70
2015,06,29,15,20,28.70
2015,06,29,15,21,28.60
2015,06,29,15,22,28.60
2015,06,29,15,23,28.70
2015,06,29,15,24,28.60
2015,06,29,15,25,28.60
2015,06,29,15,26,28.60
2015,06,29,15,27,28.50
2015,06,29,15,28,28.60
2015,06,29,15,29,28.60
2015,06,29,15,30,28.60
2015,06,29,15,31,28.60
2015,06,29,15,32,28.60
2015,06,29,15,33,28.40
2015,06,29,15,34,28.40
2015,06,29,15,35,28.40
2015,06,29,15,36,28.30
2015,06,29,15,37,28.20
2015,06,29,15,38,28.20
2015,06,29,15,39,28.20
2015,06,29,15,40,28.10
2015,06,29,15,41,28.20
2015,06,29,15,42,28.30
2015,06,29,15,43,28.30
2015,06,29,15,44,28.30
2015,06,29,15,45,28.30
2015,06,29,15,46,28.40
2015,06,29,15,47,28.40
2015,06,29,15,48,28.60
2015,06,29,15,49,28.60
2015,06,29,15,50,28.60
2015,06,29,15,51,28.60
2015,06,29,15,52,28.60
2015,06,29,15,53,28.60
2015,06,29,15,54,28.50
2015,06,29,15,55,28.40
2015,06,29,15,56,28.40
2015,06,29,15,57,28.50
2015,06,29,15,58,28.60
2015,06,29,15,59,28.70
2015,06,29,16,00,28.80
2015,06,29,16,01,28.90
2015,06,29,16,02,28.90
2015,06,29,16,03,29.00
2015,06,29,16,04,29.10
2015,06,29,16,05,29.00
2015,06,29,16,06,28.90
2015,06,29,16,07,28.90
2015,06,29,16,08,28.90
2015,06,29,16,09,28.80
2015,06,29,16,10,28.80
2015,06,29,16,11,28.70
2015,06,29,16,12,28.70
2015,06,29,16,13,28.70
2015,06,29,16,14,28.60
2015,06,29,16,15,28.60
2015,06,29,16,16,28.60
2015,06,29,16,17,28.60
2015,06,29,16,18,28.60
2015,06,29,16,19,28.60
2015,06,29,16,20,28.70
2015,06,29,16,21,28.60
2015,06,29,16,22,28.50
2015,06,29,16,23,28.40
2015,06,29,16,24,28.30
2015,06,29,16,25,28.20
2015,06,29,16,26,28.10
2015,06,29,16,27,28.10
2015,06,29,16,28,28.10
2015,06,29,16,29,28.00
2015,06,29,16,30,28.00
2015,06,29,16,31,28.00
2015,06,29,16,32,27.90
2015,06,29,16,33,27.90
2015,06,29,16,34,27.90
2015,06,29,16,35,27.80
2015,06,29,16,36,27.70
2015,06,29,16,37,27.70
2015,06,29,16,38,27.60
2015,06,29,16,39,27.60
2015,06,29,16,40,27.60
2015,06,29,16,41,27.50
2015,06,29,16,42,27.40
2015,06,29,16,43,27.40
2015,06,29,16,44,27.50
2015,06,29,16,45,27.60
2015,06,29,16,46,27.60
2015,06,29,16,47,27.70
2015,06,29,16,48,27.70
2015,06,29,16,49,27.70
2015,06,29,16,50,27.80
2015,06,29,16,51,27.70
2015,06,29,16,52,27.70
2015,06,29,16,53,27.70
2015,06,29,16,54,27.70
2015,06,29,16,55,27.80
2015,06,29,16,56,27.80
2015,06,29,16,57,27.80
2015,06,29,16,58,27.80
2015,06,29,16,59,27.90
2015,06,29,17,00,28.00
2015,06,29,17,01,28.10
2015,06,29,17,02,28.10
2015,06,29,17,03,28.20
2015,06,29,17,04,28.20
2015,06,29,17,05,28.20
2015,06,29,17,06,28.20
2015,06,29,17,07,28.20
2015,06,29,17,08,28.10
2015,06,29,17,09,28.00
2015,06,29,17,10,28.00
2015,06,29,17,11,28.00
2015,06,29,17,12,28.00
2015,06,29,17,13,28.00
2015,06,29,17,14,28.00
2015,06,29,17,15,28.00
2015,06,29,17,16,28.00
2015,06,29,17,17,28.00
2015,06,29,17,18,28.00
2015,06,29,17,19,28.00